Location: Neuvy Saint Sepulchre
(46.5953°N, 1.8122°E)
Time: 18:27:06
(UTC+01:00)

ISS - Pass Details

Date: 25 November 2021
Orbit: 417 x 422 km, 51.6° (Epoch: 06 December)

Event Time Altitude Azimuth Distance (km) Brightness Sun altitude
Rises 20:11:53 0° 285° (WNW) 2,378 1.2 -30.7°
Reaches altitude 10° 20:14:07 10° 295° (WNW) 1,512 -0.2 -31.0°
Enters shadow 20:14:19 11° 297° (WNW) 1,435 -0.3 -31.1°
